FW7036 Weather Reports


time (UTC)temp
C
wind
direction
speed
KPH
gust
KPH
rain 1hr
cm
rain 24hr
cm
rain mn
cm
humidity
%
barometer
mb
20260504214556 17 146 16.1 30.6 0.00 0.00 0.00 46 1015.3
20260504213055 17 130 12.9 27.4 0.00 0.00 0.00 45 1015.2
20260504211554 18 101 6.4 27.4 0.00 0.00 0.00 45 1015.3
20260504210107 18 190 9.7 24.1 0.00 0.00 0.00 44 1015.1
20260504204609 18 119 8.0 24.1 0.00 0.00 0.00 44 1015.3
20260504203105 17 144 17.7 30.6 0.00 0.00 0.00 45 1015.4
20260504201558 17 144 16.1 30.6 0.00 0.00 0.00 45 1015.5
20260504200055 18 81 11.3 27.4 0.00 0.00 0.00 44 1015.8
20260504194602 18 119 8.0 29.0 0.00 0.00 0.00 42 1015.9
20260504193054 19 161 4.8 17.7 0.00 0.00 0.00 42 1015.9
20260504191554 18 143 6.4 20.9 0.00 0.00 0.00 42 1016.1
20260504190128 18 87 3.2 16.1 0.00 0.00 0.00 41 1016.2
20260504184556 18 258 6.4 20.9 0.00 0.00 0.00 39 1016.4
20260504183100 18 156 6.4 25.7 0.00 0.00 0.00 40 1016.5
20260504181557 18 236 4.8 27.4 0.00 0.00 0.00 41 1016.5
20260504180058 18 143 4.8 19.3 0.00 0.00 0.00 43 1016.9
20260504174600 18 65 1.6 19.3 0.00 0.00 0.00 45 1016.7
20260504173057 17 113 4.8 24.1 0.00 0.00 0.00 45 1016.8
20260504171553 17 49 4.8 17.7 0.00 0.00 0.00 43 1016.9
20260504160107 15 109 4.8 16.1 0.00 0.00 0.00 47 1017.7
20260504081601 6 308 4.8 16.1 0.00 0.00 0.00 63 1016.3
20260504060115 7 293 3.2 6.4 0.00 0.00 0.00 60 1016.5
20260504050114 6 237 4.8 6.4 0.00 0.00 0.00 60 1017.1
20260504044556 6 237 3.2 4.8 0.00 0.00 0.00 59 1017.1
20260504043108 6 237 3.2 4.8 0.00 0.00 0.00 58 1016.9
20260504041556 7 237 3.2 8.0 0.00 0.00 0.00 56 1016.9
20260504040109 7 234 1.6 4.8 0.00 0.00 0.00 56 1017.0
20260504034600 7 229 3.2 8.0 0.00 0.00 0.00 56 1016.7
20260504033103 7 16 3.2 6.4 0.00 0.00 0.00 57 1016.7
20260504031604 7 24 1.6 6.4 0.00 0.00 0.00 55 1017.0
20260504024557 7 12 3.2 6.4 0.00 0.00 0.00 52 1017.1
20260504023059 7 65 0.0 6.4 0.00 0.00 0.00 51 1017.3
20260504021609 7 263 3.2 11.3 0.00 0.00 0.00 50 1017.2
20260504020055 7 190 1.6 6.4 0.00 0.00 0.00 49 1017.0
20260504014602 8 188 3.2 6.4 0.00 0.00 0.00 47 1016.9
20260504013111 8 188 1.6 6.4 0.00 0.00 0.00 46 1016.5
20260504011558 8 184 3.2 8.0 0.00 0.00 0.00 43 1016.4
20260504010116 9 302 1.6 6.4 0.00 0.00 0.00 42 1016.3
20260504004556 10 279 3.2 9.7 0.00 0.00 0.00 39 1016.2
20260504003055 10 271 4.8 12.9 0.00 0.00 0.00 39 1016.2
20260504001602 10 264 3.2 9.7 0.00 0.00 0.00 38 1016.0
20260504000059 11 266 3.2 12.9 0.00 0.00 0.00 39 1015.8
20260503234556 11 298 4.8 17.7 0.00 0.00 0.00 35 1015.9
20260503233102 11 305 8.0 16.1 0.00 0.00 0.00 34 1015.8
20260503231556 12 296 9.7 20.9 0.00 0.00 0.00 34 1015.8
20260503230058 12 28 4.8 12.9 0.00 0.00 0.00 35 1015.7
20260503224556 12 343 8.0 19.3 0.00 0.00 0.00 37 1015.7
20260503223058 12 289 9.7 19.3 0.00 0.00 0.00 37 1015.8
20260503221605 13 27 3.2 24.1 0.00 0.00 0.00 37 1016.0
20260503220105 13 330 8.0 27.4 0.00 0.00 0.00 35 1015.8